Location: Be Tobo
(6.6442°N, 10.6239°W)
Time: 00:39:46
(UTC+00:00)

Cosmos 1174 - Pass Details

Date: 18 September 2020
Orbit: 362 x 1155 km, 66.1° (Epoch: 21 October)

Event Time Altitude Azimuth Distance (km) Brightness Sun altitude
Rises 19:12:03 0° 199° (SSW) 2,378 7.3 -8.7°
Reaches altitude 10° 19:13:56 10° 198° (SSW) 1,587 6.4 -9.2°
Maximum altitude 19:17:26 81° 110° (ESE) 529 3.6 -10.0°
Drops below altitude 10° 19:21:47 10° 23° (NNE) 1,973 6.4 -11.1°
Sets 19:24:20 0° 22° (NNE) 3,025 7.4 -11.7°
